SL-16 DEB

Satellite information

Favourite Embed

Satellite Type and Status

DEBRISIN ORBIT

Key statistics

Satellite SL-16 DEB at a glance.

Uptime

11791

Days in orbit

Revolutions

≈ 13.9

Per day

Orbit

LEO

Low Earth Orbit

Inclination

71.0

Latest

Satellite identification and parameters

Extended collection of information and parameters for SL-16 DEB.

Object identification

Identified? True

Debris? True

Object name: SL-16 DEB

International designator: 1993-016Z

Object number (NORAD): 22615

Object ID (CCSDS): 22615

Country: COMMONWEALTH OF INDEPENDENT STATES (CIS)

Current information (Y/N): Y

RCS size: SMALL

Orbital parameters

Period: 103.319 minutes

Inclination: 71.0029 deg

SMA: 7293.697 km

Apoapsis: 1011.635 km

Periapsis: 819.49 km

RAAN: 52.628 deg

Eccentricy: 0.013172

Argument of periapsis: 269.391 deg

Mean anomaly: 216.0925 deg

Mean motion: 13.93738068 rev/day

Mean motion (dot): 0.00000444 rev/day2

B* drag term: 0.00034623 1/REarth

Two-line elements (TLE)

Creation date: July 6, 2025, 6:05 p.m.

Reference frame: TEME

Reference center: EARTH

Epoch: July 6, 2025, 12:16 a.m. UTC

TLE line 0: 0 SL-16 DEB

TLE line 1: 1 22615U 93016Z 25187.01155278 .00000444 00000-0 34623-3 0 9990

TLE line 2: 2 22615 71.0029 52.6280 0131720 269.3910 216.0925 13.93738068633324

Live tracking on map

Real-time ground track for satellite SL-16 DEB.

In-orbit conjunctions

A list of the most updated potential collisions computed for object SL-16 DEB.

Target Orbit TCA Probability of collision Miss distance Type
METEOR 1-21 LEO 2025-07-05 06:13:56 0.0001463059 299.0 (m) PAYLOAD
SL-3 DEB LEO 2025-04-28 09:15:59 0.0001106757 683.0 (m) DEBRIS

Associated space launch

Second generation ELING satellite

SL-16 DEB was lifted into orbit during the mission ‘Zenit-2 | Tselina-2 13’, on board a Zenit-2 space rocket.

The launch took place on March 26, 1993, 2:21 a.m. from 45/1.

For more information about the launch, click the button.

Launch to space Zenit-2 | Tselina-2 13
Zenit-2 | Tselina-2 13

Agency: N/A

Status: Launch Successful

Launch date: March 26, 1993, 2:21 a.m. UTC

Rocket: Zenit-2

Launch pad: 45/1

Location: Baikonur Cosmodrome, Republic of Kazakhstan

...

Latest news about this satellite

There are no fresh news available about this satellite. Check back as we update our databases every day.


Newsletter sign-up

Weekly statistics, charts and insights to help you stay on top of the space industry.